This is the latest recevied weather packets stored in our database for station/object N8JE-13. If no packets are shown the sender has not sent any weather packets the latest 10 day(s).
| Time | Temp. | Humidity | Pressure | Rain* | Wind** | Luminosity | Snow |
|---|---|---|---|---|---|---|---|
| 1778034952 | 9.44° C | 94% | 1007.5 hPa | 2.79 mm | - | - | - |
| 1778034652 | 9.44° C | 94% | 1007.4 hPa | 2.54 mm | - | - | - |
| 1778034352 | 9.44° C | 94% | 1007.5 hPa | 2.29 mm | - | - | - |
| 1778034052 | 10° C | 94% | 1007.5 hPa | 2.29 mm | - | - | - |
| 1778033752 | 10° C | 94% | 1007.5 hPa | 2.29 mm | - | - | - |
| 1778033451 | 10° C | 94% | 1007.3 hPa | 2.79 mm | - | - | - |
| 1778033151 | 10° C | 94% | 1007.3 hPa | 3.05 mm | - | - | - |
| 1778032852 | 10° C | 94% | 1007.2 hPa | 3.3 mm | - | - | - |
| 1778032552 | 10° C | 94% | 1007.1 hPa | 3.05 mm | - | - | - |
| 1778032252 | 10° C | 94% | 1006.9 hPa | 3.05 mm | - | - | - |
| 1778031951 | 10° C | 94% | 1006.8 hPa | 3.05 mm | - | - | - |
| 1778031651 | 10.56° C | 94% | 1006.8 hPa | 3.3 mm | - | - | - |
| 1778031351 | 10.56° C | 93% | 1007 hPa | 3.81 mm | - | - | - |
| 1778031051 | 10.56° C | 93% | 1007 hPa | 3.81 mm | - | - | - |
| 1778030751 | 11.11° C | 92% | 1007 hPa | 3.81 mm | - | - | - |
| 1778030453 | 11.11° C | 91% | 1006.9 hPa | 3.56 mm | - | - | - |
| 1778030152 | 12.22° C | 91% | 1006.9 hPa | 3.81 mm | - | - | - |
| 1778029851 | 13.33° C | 90% | 1006.8 hPa | 3.56 mm | - | - | - |
| 1778029551 | 13.89° C | 92% | 1006.4 hPa | 3.81 mm | - | - | - |
| 1778029251 | 15° C | 93% | 1006.6 hPa | 3.81 mm | - | - | - |
| 1778028952 | 15° C | 94% | 1006.4 hPa | 4.06 mm | - | - | - |
| 1778028652 | 15° C | 94% | 1006.3 hPa | 3.81 mm | - | - | - |
| 1778028352 | 15° C | 94% | 1006.4 hPa | 3.81 mm | - | - | - |
| 1778028052 | 15° C | 94% | 1006.3 hPa | 3.56 mm | - | - | - |
| 1778027752 | 15° C | 94% | 1006.2 hPa | 3.3 mm | - | - | - |
* Rain latest hour (hover to see other rain measurements)
** Current wind speed in m/s (hover to see current wind gust speed)